This is the latest recevied weather packets stored in our database for station/object N3LF. If no packets are shown the sender has not sent any weather packets the latest 10 day(s).
| Time | Temp. | Humidity | Pressure | Rain* | Wind** | Luminosity | Snow |
|---|---|---|---|---|---|---|---|
| 1788374130 | 36.67° C | 46% | 1020.7 hPa | 0 mm | - | 641 W/m² | - |
| 1788373826 | 37.22° C | 50% | 1020.6 hPa | 0 mm | - | 646 W/m² | - |
| 1788373522 | 36.67° C | 49% | 1020.6 hPa | 0 mm | - | 647 W/m² | - |
| 1788373218 | 36.67° C | 45% | 1020.6 hPa | 0 mm | - | 660 W/m² | - |
| 1788372914 | 36.67° C | 49% | 1020.7 hPa | 0 mm | - | 667 W/m² | - |
| 1788372608 | 36.11° C | 50% | 1020.7 hPa | 0 mm | - | 654 W/m² | - |
| 1788372308 | 36.67° C | 49% | 1020.9 hPa | 0 mm | - | 655 W/m² | - |
| 1788372004 | 36.67° C | 50% | 1020.9 hPa | 0 mm | - | 655 W/m² | - |
| 1788371704 | 36.11° C | 49% | 1021 hPa | 0 mm | - | 658 W/m² | - |
| 1788371400 | 35.56° C | 50% | 1020.8 hPa | 0 mm | - | 663 W/m² | - |
| 1788371097 | 36.11° C | 48% | 1021.1 hPa | 0 mm | - | 661 W/m² | - |
| 1788370792 | 36.67° C | 47% | 1021.4 hPa | 0 mm | - | 661 W/m² | - |
| 1788370491 | 35.56° C | 49% | 1021.1 hPa | 0 mm | - | 658 W/m² | - |
| 1788370186 | 36.11° C | 50% | 1021.3 hPa | 0 mm | - | 656 W/m² | - |
| 1788369886 | 36.11° C | 48% | 1021.3 hPa | 0 mm | - | 654 W/m² | - |
| 1788369581 | 36.67° C | 46% | 1021.4 hPa | 0 mm | - | 670 W/m² | - |
| 1788369276 | 36.67° C | 47% | 1021.3 hPa | 0 mm | - | 649 W/m² | - |
| 1788368972 | 37.22° C | 47% | 1021.3 hPa | 0 mm | - | 649 W/m² | - |
| 1788368667 | 36.67° C | 48% | 1021.4 hPa | 0 mm | - | 647 W/m² | - |
| 1788368363 | 35° C | 51% | 1021.4 hPa | 0 mm | - | 643 W/m² | - |
| 1788368062 | 36.11° C | 50% | 1021.8 hPa | 0 mm | - | 637 W/m² | - |
| 1788367757 | 36.11° C | 54% | 1021.7 hPa | 0 mm | - | 635 W/m² | - |
| 1788367452 | 36.11° C | 54% | 1021.6 hPa | 0 mm | - | 630 W/m² | - |
| 1788367151 | 35° C | 51% | 1022 hPa | 0 mm | - | 625 W/m² | - |
| 1788366846 | 35.56° C | 50% | 1021.8 hPa | 0 mm | - | 618 W/m² | - |
* Rain latest hour (hover to see other rain measurements)
** Current wind speed in m/s (hover to see current wind gust speed)